CAPE
5 6 4 5 9 11 13 20 27 24 12 1 4 8 12 10 8 11 4 0 0 0 0 0 4 0 5 0 0 0 0 0 1 1 8 12 6 2
1 5 7 7 8 10 11 13 16 43 31 13 8 15 21 9 20 19 17 2 0 0 0 0 0 0 0 0 4 2 0 1 1 0 2 3 13 9
3 6 7 7 7 9 13 14 12 21 36 10 21 10 18 16 19 30 32 29 19 1 0 0 0 0 0 0 0 0 0 2 0 0 0 4 11 15
4 6 8 7 11 9 12 10 12 19 29 32 13 13 19 20 37 41 27 13 28 6 0 0 0 0 0 0 0 0 0 0 0 0 0 3 4 10
7 8 7 9 10 11 10 9 13 9 14 37 26 24 29 28 34 29 32 40 13 13 1 0 0 0 0 0 0 1 0 0 0 0 0 0 0 4
6 9 9 7 10 10 10 13 11 17 18 31 33 31 30 17 41 36 22 32 29 14 14 3 0 7 0 0 1 0 0 0 0 0 0 0 0 0
2 2 4 1 0 6 8 12 14 24 25 30 33 33 34 37 43 42 33 12 11 27 44 42 27 30 37 29 22 3 0 0 0 0 0 0 0 0
0 0 1 0 3 1 5 4 0 12 18 36 39 34 26 35 62 42 31 18 8 25 31 11 16 18 19 12 0 0 0 0 0 0 0 0 0 0
1 1 0 0 7 4 3 0 3 0 0 9 33 28 31 60 48 30 30 21 15 9 20 13 18 27 12 9 0 0 1 0 0 0 0 0 0 0
0 2 3 2 0 7 4 7 10 11 10 8 25 31 35 47 60 40 28 26 18 21 34 8 17 17 17 8 0 0 0 0 0 0 0 0 0 0
0 1 1 0 0 4 3 4 4 3 0 5 6 1 0 1 12 30 19 16 11 11 19 24 7 1 13 8 1 2 0 0 0 0 0 0 0 0
0 0 0 0 2 3 7 9 4 8 25 19 13 9 14 27 7 48 33 18 12 7 17 6 6 9 6 21 16 0 0 0 0 0 0 0 0 6
0 0 2 0 1 0 1 8 9 12 14 31 35 31 25 28 37 43 53 36 12 8 18 5 1 5 9 6 6 0 0 1 0 1 1 0 0 0
0 2 2 0 0 0 1 0 0 6 39 41 41 39 38 42 40 40 55 67 58 51 32 27 0 2 4 4 8 5 6 1 0 1 1 0 0 0
1 0 0 0 0 0 0 0 0 17 38 40 40 46 49 46 37 33 45 65 56 70 35 40 25 0 2 8 3 1 1 1 1 1 1 1 1 2
0 2 0 0 0 0 2 2 6 9 19 30 41 48 51 46 36 32 36 55 62 49 53 36 42 24 8 12 23 17 9 5 2 2 1 1 1 1
0 1 0 0 0 0 0 3 7 6 6 16 30 43 42 35 35 37 32 43 52 51 72 63 25 30 2 2 38 28 17 13 8 3 2 1 6 6
0 0 0 0 0 0 0 0 0 2 6 11 23 29 39 38 35 27 31 43 42 49 56 91 64 25 29 19 8 57 35 24 15 8 8 3 2 3
0 0 0 0 0 0 0 0 0 0 2 9 14 31 35 37 39 30 29 41 32 36 50 88 82 41 42 44 62 1 25 31 15 7 15 6 3 1
0 0 0 0 0 0 0 0 0 0 0 3 9 31 39 37 37 31 29 28 36 34 39 51 88 27 30 31 32 39 0 26 23 15 14 7 1 0
0 0 0 0 0 0 0 0 0 0 1 4 4 28 35 39 35 33 32 20 23 34 26 33 60 0 56 50 52 46 66 0 6 20 10 7 8 7
0 0 0 0 0 0 0 2 0 1 1 3 17 29 35 36 34 33 35 32 33 31 20 43 52 76 52 45 51 44 50 65 1 0 0 3 9 5
0 0 0 0 0 0 0 0 0 0 0 0 6 8 33 34 31 38 36 29 31 27 20 31 45 63 44 32 22 39 39 54 61 21 18 0 0 0
CIN
-0 -0 -0 -0 -0 -0 -0 -0 -0 -0 -0 -0 -0 -0 -0 -0 -0 -0 -0 -0 -0 -0 -0 -0 -13 -0 -2 -0 -0 -0 -0 -0 -0 -0 -0 -0 -0 -0
-0 -0 -0 -0 -0 -0 -0 -0 -0 -0 -0 -0 -0 -0 -0 -0 -0 -0 -0 -3 -0 -0 -0 -0 -0 -0 -0 -0 -0 -0 -0 -0 -0 -0 -0 -0 -0 -0
-0 -0 -0 -0 -0 -0 -0 -0 -0 -0 -0 -0 -0 -0 -0 -0 -0 -0 -0 -0 -0 -2 -0 -0 -0 -0 -0 -0 -1 -0 -0 -0 -0 -0 -0 -0 -0 -0
-0 -0 -0 -0 -0 -0 -0 -0 -0 -0 -0 -0 -0 -0 -0 -0 -0 -0 -0 -0 -0 -0 -0 -0 -0 -0 -0 -0 -0 -0 -0 -0 -0 -0 -0 -0 -0 -0
-0 -0 -0 -0 -0 -0 -0 -0 -0 -0 -0 -0 -0 -0 -0 -0 -0 -0 -0 -0 -0 -0 -3 -0 -0 -0 -0 -0 -0 -6 -0 -0 -0 -0 -0 -0 -0 -0
-0 -0 -0 -0 -0 -0 -0 -0 -0 -0 -0 -0 -0 -0 -0 -0 -0 -0 -0 -0 -0 -0 -0 -2 -2 -6 -19 -3 -7 -1 -0 -0 -0 -0 -0 -0 -0 -0
-0 -0 -0 -0 -0 -0 -0 -0 -0 -0 -0 -0 -0 -0 -0 -0 -0 -0 -0 -0 -0 -0 -0 -0 -0 -0 -0 -0 -0 -5 -0 -0 -0 -0 -0 -0 -0 -0
-0 -0 -0 -1 -0 -4 -0 -2 -8 -0 -0 -0 -0 -0 -0 -0 -0 -0 -0 -0 -0 -0 -0 -0 -0 -0 -0 -0 -0 -0 -0 -0 -0 -0 -0 -0 -0 -0
-0 -0 -0 -0 -0 -0 -0 -1 -2 -3 -0 -0 -0 -0 -0 -0 -0 -0 -0 -0 -0 -0 -0 -0 -0 -0 -0 -0 -0 -0 -0 -0 -0 -0 -0 -0 -0 -0
-0 -0 -0 -0 -0 -0 -0 -0 -0 -0 -0 -0 -0 -0 -0 -0 -0 -0 -0 -0 -0 -0 -0 -0 -0 -0 -0 -0 -0 -0 -0 -0 -0 -0 -0 -0 -0 -0
-0 -0 -0 -0 -0 -0 -0 -0 -0 -0 -0 -0 -0 -5 -7 -6 -3 -0 -0 -0 -0 -0 -0 -0 -0 -0 -0 -0 -0 -1 -0 -0 -0 -0 -0 -0 -0 -0
-0 -0 -0 -0 -0 -0 -0 -0 -0 -0 -0 -0 -0 -0 -0 -0 -1 -0 -0 -0 -0 -0 -0 -0 -0 -0 -0 -0 -0 -1 -0 -0 -0 -0 -0 -0 -0 -0
-0 -0 -0 -0 -0 -0 -0 -0 -0 -0 -0 -0 -0 -0 -0 -0 -0 -0 -0 -0 -0 -0 -0 -0 -0 -0 -0 -0 -0 -1 -0 -0 -0 -0 -0 -0 -0 -0
-0 -0 -0 -0 -0 -0 -0 -0 -0 -0 -0 -0 -0 -0 -0 -0 -0 -0 -0 -0 -0 -0 -0 -0 -0 -0 -0 -0 -0 -0 -0 -0 -0 -0 -0 -0 -0 -0
-0 -0 -0 -0 -0 -0 -0 -0 -0 -0 -0 -0 -0 -0 -0 -0 -0 -0 -0 -0 -0 -0 -0 -0 -0 -0 -0 -0 -0 -0 -0 -0 -0 -0 -0 -0 -0 -0
-0 -0 -0 -0 -0 -0 -0 -0 -0 -0 -0 -0 -0 -0 -0 -0 -0 -0 -0 -0 -0 -0 -0 -0 -0 -0 -0 -0 -0 -0 -0 -0 -0 -0 -0 -0 -0 -0
-0 -0 -0 -0 -0 -0 -0 -0 -0 -0 -0 -0 -0 -0 -0 -0 -0 -0 -0 -0 -0 -0 -0 -0 -0 -0 -0 -0 -0 -0 -0 -0 -0 -0 -0 -0 -0 -0
-0 -0 -0 -0 -0 -0 -0 -0 -0 -0 -0 -0 -0 -0 -0 -0 -0 -0 -0 -0 -0 -0 -0 -0 -0 -0 -0 -0 -0 -0 -0 -0 -0 -0 -0 -0 -0 -0
-0 -0 -0 -0 -0 -0 -0 -0 -0 -0 -0 -0 -0 -0 -0 -0 -0 -0 -0 -0 -0 -0 -0 -0 -0 -0 -0 -0 -0 -0 -0 -0 -0 -0 -0 -0 -0 -0
-0 -0 -0 -0 -0 -0 -0 -0 -0 -0 -0 -0 -0 -0 -0 -0 -0 -0 -0 -0 -0 -0 -0 -0 -0 -0 -0 -0 -0 -0 -0 -0 -0 -0 -0 -0 -0 -0
-0 -0 -0 -0 -0 -0 -0 -0 -0 -0 -0 -0 -0 -0 -0 -0 -0 -0 -0 -0 -0 -0 -0 -0 -0 -0 -0 -0 -0 -0 -0 -0 -0 -0 -0 -0 -0 -0
-0 -0 -0 -0 -0 -0 -0 -0 -0 -0 -0 -0 -0 -0 -0 -0 -0 -0 -0 -0 -0 -0 -0 -0 -0 -0 -0 -0 -0 -0 -0 -0 -0 -0 -0 -0 -0 -0
-0 -0 -0 -0 -0 -0 -0 -0 -0 -0 -0 -0 -0 -0 -0 -0 -0 -0 -0 -0 -0 -0 -0 -0 -0 -0 -0 -0 -0 -0 -0 -0 -0 -0 -0 -0 -0 -0
Wind_Speed
9 10 9 8 9 9 9 10 10 15 16 16 16 17 16 17 19 22 23 27 27 28 26 28 21 23 24 27 30 28 27 26 25 25 27 28 29 29
7 9 9 8 9 8 9 9 10 12 15 16 16 20 18 16 19 21 23 27 25 23 19 20 26 27 29 30 26 26 28 27 25 25 26 28 29 29
9 10 10 10 8 9 9 10 11 12 15 16 16 19 22 22 20 20 19 20 18 24 25 23 22 26 29 26 27 30 29 26 24 24 26 27 28 30
9 8 9 8 11 10 10 13 12 14 13 22 19 17 20 22 22 22 17 18 19 25 27 32 30 26 24 26 28 28 23 23 25 25 25 23 26 29
9 9 10 10 11 11 12 12 13 13 15 14 18 15 16 16 18 19 18 18 17 27 29 30 30 29 28 25 26 21 27 29 28 25 21 23 25 26
8 9 9 11 13 14 13 15 14 14 14 13 14 16 16 18 14 15 20 13 17 18 22 23 26 26 25 24 26 25 27 23 25 21 24 21 23 25
8 9 10 8 12 12 12 16 17 14 13 13 14 15 14 16 17 14 16 19 15 17 15 12 16 17 18 21 22 24 17 19 24 23 21 22 23 24
9 10 11 9 14 15 19 20 17 15 17 14 14 16 19 17 15 15 16 16 20 10 16 17 14 15 14 13 22 25 27 27 21 19 21 21 21 20
9 10 11 10 12 17 19 19 15 13 14 13 17 17 20 19 19 18 18 17 17 17 16 16 13 15 11 14 26 25 26 26 23 18 19 18 19 20
8 10 11 13 15 19 19 17 17 17 16 15 16 18 18 20 19 17 19 17 14 14 14 14 12 15 13 12 26 22 23 18 13 17 14 15 18 22
8 9 11 14 21 23 18 18 18 16 18 23 24 25 23 23 20 14 13 14 16 16 13 9 11 15 12 13 10 15 17 14 12 16 14 15 17 21
9 10 7 15 21 21 17 17 18 18 18 19 17 19 20 19 24 17 14 14 14 14 10 11 12 8 8 7 12 10 9 10 15 14 17 16 17 10
7 8 9 19 21 20 18 15 17 19 17 15 14 13 16 16 14 16 17 15 13 12 15 10 8 8 6 10 7 10 10 10 8 11 16 17 19 11
8 7 10 19 19 17 14 18 20 12 11 12 13 13 14 15 16 16 18 17 14 14 14 13 7 9 8 9 7 9 10 9 8 9 9 12 14 17
7 8 11 14 14 13 17 17 14 12 12 12 14 14 14 14 17 17 18 20 17 15 11 16 11 11 6 6 7 7 12 7 8 11 10 9 8 8
8 6 7 9 7 8 10 12 12 13 13 13 14 13 14 14 14 14 15 15 14 14 16 15 16 14 4 6 5 11 10 7 10 10 11 8 7 8
10 7 8 9 10 11 11 12 12 13 14 14 13 14 15 15 14 15 14 15 15 16 15 14 15 16 4 6 7 11 11 10 11 12 10 9 6 9
5 6 8 9 10 12 12 13 13 15 15 15 14 14 14 15 15 15 15 15 15 16 15 14 14 13 11 1 8 12 11 11 13 13 10 8 8 9
6 7 7 9 10 11 11 12 13 14 16 14 15 14 14 15 17 15 15 15 15 15 15 14 14 13 14 14 7 13 11 11 13 13 10 8 5 8
5 6 7 8 9 10 11 12 12 13 14 14 15 14 14 14 15 15 15 16 16 14 15 15 14 13 11 11 8 9 9 10 12 12 10 7 5 7
5 6 7 8 9 9 10 11 13 13 13 13 14 13 13 14 15 15 15 21 19 14 16 16 16 19 10 11 8 9 10 9 13 14 14 7 7 5
5 6 6 7 8 9 10 10 11 13 13 12 13 12 13 13 14 16 15 16 15 14 14 14 16 13 11 12 12 10 11 9 10 19 24 19 8 7
4 5 6 7 8 9 10 10 11 12 12 13 13 13 13 14 14 14 14 15 15 15 16 15 14 14 12 12 13 10 15 11 7 11 14 24 24 24
Wind_Direction
13 9 356 350 342 332 327 323 315 313 314 317 326 319 316 311 311 309 310 307 312 294 290 297 306 315 309 308 303 300 302 301 299 298 294 286 274 269
16 4 354 348 336 329 323 323 316 308 299 315 316 317 314 307 307 309 308 308 302 296 295 297 306 308 303 299 293 294 299 293 294 297 295 292 281 269
14 4 351 342 341 337 326 323 317 312 302 304 308 312 311 315 317 315 310 310 308 308 309 298 297 288 289 292 293 291 289 280 288 291 290 289 289 274
13 358 356 353 342 339 334 326 321 316 309 307 311 314 314 318 315 311 312 308 309 304 315 305 299 292 281 287 288 285 280 286 288 288 286 283 288 278
4 357 359 349 349 344 337 334 326 320 314 307 307 312 310 314 318 314 309 309 305 307 303 301 299 296 287 282 284 282 287 288 286 286 280 288 289 276
359 351 356 354 355 344 337 330 326 322 316 309 306 309 314 318 313 314 310 311 310 308 297 291 290 290 279 286 289 287 283 278 281 277 284 286 282 278
354 355 2 344 5 346 337 331 327 323 323 315 310 310 316 318 319 319 306 310 313 299 301 320 309 300 299 301 297 290 285 290 284 278 288 288 285 275
349 353 350 346 347 355 329 319 303 319 318 313 314 315 315 314 315 314 309 313 316 303 314 303 302 297 293 293 295 295 289 285 277 276 285 288 292 288
353 348 348 353 349 345 333 314 318 311 290 328 315 313 310 317 315 309 309 305 303 306 304 301 304 295 299 297 296 294 288 282 278 285 279 292 300 296
358 356 352 350 10 342 331 332 327 326 333 327 315 309 308 310 314 311 306 301 296 303 314 298 314 308 309 299 299 297 292 278 276 282 292 305 305 306
358 3 356 352 355 345 334 334 329 328 331 317 313 307 308 315 322 318 318 317 320 322 324 317 316 306 302 293 286 314 311 302 299 299 302 310 310 307
358 359 30 10 345 344 339 337 336 338 326 326 324 326 328 328 327 327 322 321 318 321 329 316 318 330 312 298 327 316 325 323 321 317 315 318 317 320
353 351 349 355 339 336 335 346 329 314 330 328 329 329 331 331 330 327 326 323 315 309 314 317 313 316 285 305 312 315 338 329 327 323 324 325 320 320
356 350 344 335 330 327 338 329 319 316 335 333 335 336 333 331 329 326 325 322 322 318 321 321 307 313 305 301 315 331 326 322 335 327 326 318 328 334
359 318 311 325 328 341 343 337 333 349 342 343 340 335 332 326 327 329 327 328 329 334 337 337 332 319 310 301 313 329 326 328 335 329 329 323 332 337
346 349 336 328 324 328 340 350 350 353 346 347 340 332 330 333 335 335 331 334 334 338 344 349 345 342 314 306 318 342 341 328 325 329 327 317 335 339
317 353 360 354 352 353 352 351 352 351 355 350 345 337 337 336 337 337 337 336 339 338 340 347 350 345 310 298 340 355 342 335 335 328 332 329 336 349
348 7 4 357 355 353 352 350 354 354 352 347 345 341 338 337 336 338 338 342 341 338 338 344 345 345 346 188 31 355 348 339 336 335 336 330 332 350
25 12 5 359 354 353 353 351 352 349 345 348 344 345 339 336 338 341 341 341 341 338 337 341 348 348 344 352 349 44 353 347 339 339 337 337 316 341
20 11 4 358 354 353 352 351 347 347 348 345 343 342 341 336 340 342 343 341 339 339 337 339 344 346 344 341 332 336 23 358 353 343 335 324 310 297
14 11 4 357 356 352 351 349 344 345 345 339 341 339 340 337 341 340 341 343 341 342 341 337 336 332 343 333 344 354 2 48 27 4 349 332 339 13
10 4 0 358 356 353 350 349 344 346 346 343 340 339 338 337 340 339 343 341 342 342 340 329 338 342 356 354 350 351 359 2 52 34 25 28 7 19
8 0 357 360 356 352 349 348 344 344 345 342 340 338 338 340 339 339 342 342 343 345 342 339 343 345 353 1 353 354 356 1 19 35 38 38 54 58